Voltar ao catálogo

STARLINK-34091

AtivoComunicaçõesVLEO
NORAD 63808·PAYLOAD·🇺🇸 United States

Lançado May 4, 2025 de Cape Canaveral Space Force Station

Loading…

Próximas Passagens (próximas 24 horas)

TLE

AtualizadoSource: CelesTrak SupGP

Época: Sep 14, 2026, 22:41 UTC

1 63808C 25092E   26257.94562500 -.00026251  00000+0 -95160-3 0  2574
2 63808  43.0031 183.8499 0001414 263.0595 236.4293 15.27564405    19

Acompanhe STARLINK-34091 em tempo real com AllMySat

Download on the App Store